Location: Maiden
(35.5760°N, 81.2120°W)
Time: 05:38:30
(UTC-04:00)

Daily predictions for brighter satellites

Satellite Brightness Start Highest point End
(mag) Time Altitude Azimuth Time Altitude Azimuth Time Altitude Azimuth
CZ-3 R/B 4.3 03:56:03 44° SSW 04:00:52 48° S 04:11:36 10° E
Cosmos 2263 Rocket 3.2 04:24:29 43° NE 04:24:29 43° NE 04:28:22 10° NNE
Okean O Rocket 4.1 04:27:51 10° NE 04:30:42 17° E 04:32:04 15° ESE
Atlas Centaur 2 3.2 04:36:43 40° SE 04:36:43 40° SE 04:40:30 10° E
Cosmos 1607 4.2 04:49:19 58° NNW 04:49:19 58° NNW 04:54:47 10° NNE
CZ-4B R/B 4.4 04:49:48 10° NNE 04:52:49 33° ENE 04:52:49 33° ENE
PSLV R/B 4.2 04:59:27 10° NNE 05:03:32 50° E 05:03:37 50° ESE
Intercosmos 25 Rocket 4.2 05:06:03 48° ESE 05:06:16 49° E 05:09:34 10° NNE
Cosmos 1570 Rocket 4.0 05:01:15 10° NNW 05:06:34 79° ENE 05:11:54 10° SSE
CZ-4B R/B 4.3 05:03:33 10° NNE 05:08:33 41° E 05:13:34 10° S
Cosmos 1544 Rocket 4.5 05:06:03 10° N 05:10:15 47° E 05:14:27 10° SSE
ATLAS 3B R/B 3.0 05:06:48 34° SSW 05:10:17 74° ESE 05:17:29 10° NE
MOS 1-B 4.2 05:05:51 10° NNE 05:11:39 81° WNW 05:13:00 55° SSW
Cosmos 2208 Rocket 3.9 05:10:01 10° NNW 05:15:20 85° ENE 05:20:31 10° SSE
Cosmos 1455 Rocket 3.8 05:13:37 10° N 05:17:51 51° E 05:22:03 10° SSE
ASTEX 1 4.0 05:19:00 10° N 05:22:41 41° NW 05:22:41 41° NW
ADEOS II 2.2 05:26:01 10° N 05:31:06 52° WNW 05:31:51 48° WSW
IRS-1C Rocket 4.5 05:26:52 10° NNE 05:32:07 63° ESE 05:37:19 10° S
Cosmos 1536 Rocket 3.6 05:31:10 17° S 05:34:27 74° E 05:38:48 10° N
DELTA 2 R/B (1) 3.8 05:32:51 35° WNW 05:35:12 66° N 05:40:45 10° E
CZ-4B DEB 4.1 05:43:34 10° N 05:49:01 74° WNW 05:54:28 10° SSW
Cosmos 1553 Rocket 4.0 05:46:09 10° S 05:52:18 81° E 05:58:24 10° N
Landsat 4 4.1 05:48:39 10° SSE 05:52:25 64° ENE 05:56:13 10° N
Cosmos 1666 2.5 05:50:48 10° N 05:54:35 78° W 05:58:22 10° S
Cosmos 1975 4.2 05:51:27 10° NNW 05:53:28 23° NW 05:53:28 23° NW
Cosmos 1844 Rocket 2.7 05:51:54 10° SSW 05:57:33 88° ESE 06:03:16 10° NNE
NOSS 3-2 (A) 3.7 05:53:29 10° SSW 05:59:17 68° ESE 06:05:37 10° NE
Meteor 1-31 Rocket 2.7 05:56:51 10° NNE 06:00:44 89° WNW 06:04:33 10° SSW
Cosmos 1025 Rocket 4.2 05:57:11 10° SSE 06:01:13 43° E 06:05:18 10° NNE
USA 116 4.4 05:58:59 10° SSE 06:02:06 44° ENE 06:05:05 10° N
Cosmos 1943 4.4 06:04:35 20° WSW 06:04:35 20° WSW 06:07:23 10° SSW
Cosmos 841 Rocket 4.2 06:00:52 10° N 06:05:58 56° ENE 06:11:05 10° SSE
Okean O Rocket 2.2 06:03:11 10° N 06:07:08 34° WNW 06:09:31 20° SW
Cosmos 2263 Rocket 3.8 06:06:14 16° WNW 06:07:08 16° NW 06:10:40 10° NNW
Cosmos 1743 3.2 06:03:58 10° NNW 06:07:36 38° W 06:11:13 10° SSW
Cosmos 468 Rocket 4.1 06:02:29 10° NNW 06:07:41 56° WSW 06:12:50 10° S
Meteor 1-23 Rocket 4.4 06:02:22 10° S 06:07:54 77° E 06:13:28 10° NNE
ASTRO E2 3.7 06:07:50 20° SW 06:10:05 36° SSE 06:13:47 10° ESE
Cosmos 1486 Rocket 3.9 06:06:19 10° SSW 06:11:33 70° WNW 06:16:46 10° NNE
GPS 2-05 Rocket1 4.5 06:12:31 16° SSW 06:12:36 16° SSW 06:14:33 10° SSE
S3M 4.0 06:06:29 10° S 06:12:43 76° W 06:19:04 10° N
MTI 4.2 06:10:27 10° SSE 06:13:39 64° ENE 06:16:53 10° N
Meteor 1-4 Rocket 2.9 06:12:26 10° NNW 06:15:39 35° W 06:18:50 10° SSW
Cosmos 332 Rocket 4.5 06:11:38 10° NW 06:15:49 30° W 06:19:58 10° SSW
Abrixas 4.1 06:15:53 10° SSW 06:17:55 23° SE 06:19:58 10° E
Meteor PRIRODA 4.1 06:15:05 10° N 06:18:33 39° WNW 06:22:01 10° SW
Delta 2 Rocket 4.1 06:14:38 19° W 06:18:44 85° S 06:24:33 10° E
CZ-2C R/B 3.7 06:15:22 10° S 06:20:01 71° WSW 06:24:47 10° NNW
Cosmos 371 Rocket 3.9 06:15:42 10° NW 06:20:03 33° W 06:24:22 10° SSW
ATLAS CENTAUR R/B 1.5 06:17:31 10° SSW 06:21:28 67° ESE 06:25:13 10° NE
Meteor 1-28 Rocket 3.5 06:18:32 10° SSE 06:22:13 71° ENE 06:25:58 10° N
Atlas Centaur 2 2.6 06:19:20 16° WSW 06:23:52 45° S 06:28:30 10° ESE
Tiangong 1 0.9 06:22:50 21° W 06:24:19 50° SSW 06:26:54 10° SE
COSMO-SKYMED 1 3.7 06:20:11 10° SSE 06:24:20 47° ENE 06:28:30 10° N
USA 238 DEB 4.1 06:19:02 13° WSW 06:24:59 44° NW 06:31:38 10° NNE
Cosmos 1763 Rocket 3.5 06:19:44 10° NNW 06:25:01 70° WSW 06:30:17 10° S
USA 238 4.1 06:19:05 12° WSW 06:25:05 44° NW 06:31:45 10° NNE
IDEFIX/ARIANE 42P 4.0 06:25:04 10° NNE 06:30:04 42° E 06:35:00 10° S
ATLAS 5 CENTAUR R/B 3.4 06:26:23 10° NNW 06:32:20 52° NE 06:38:45 10° SE
Cosmos 1386 Rocket 4.4 06:35:51 10° N 06:42:02 77° W 06:48:04 10° S
Feng Yun 1-1 Rocket 4.2 06:39:41 10° N 06:45:01 64° WNW 06:50:24 10° SSW
Centaur D-1AR AC-48 4.5 06:42:04 10° SSW 06:45:03 13° S 06:47:10 10° SSE
Cosmos 1844 4.0 06:39:48 10° SW 06:45:09 48° WNW 06:50:38 10° N
NOAA 6 4.1 06:41:48 10° N 06:46:57 67° WNW 06:52:05 10° SSW
Cosmos 883 Rocket 4.4 06:41:31 10° S 06:47:37 76° W 06:53:47 10° N
CZ-4B R/B 4.3 06:44:51 10° NNW 06:48:49 22° WNW 06:52:48 10° WSW
GEOS 3 Rocket 4.2 06:43:54 10° SE 06:48:59 63° NE 06:54:12 10° NNW
